#timestamp,LO_Frequency,Hit 
1501718415.0,286047007.8,N
1501718415.9,286047007.8,N
1501718435.8,286047007.8,N
1501718455.6,286047007.8,N
1501718475.4,286047008.9,N
1501718495.3,286047008.8,N
1501718515.1,286047008.2,N
1501718535.8,286047008.3,N
1501718555.7,286047010.6,N
1501718575.5,286047009.3,N
1501718595.3,286047012.3,N
1501718615.2,286047009.6,N
1501718635.9,286047010.0,N
1501718655.7,286047008.4,N
1501718675.5,286047007.7,N
1501718695.4,286047012.1,N
1501718715.2,286047011.5,N
1501718735.0,286047013.7,N
1501718735.9,286047013.7,N
1501718755.8,286047011.3,N
1501718775.6,286047012.6,N
1501718795.4,286047011.4,N
1501718815.3,286047012.9,N
1501718835.1,286047014.0,N
1501718836.0,286047014.0,N
1501718855.8,286047013.0,N
1501718875.7,286047012.8,N
1501718895.5,286047015.5,N
1501718915.3,286047015.1,N
1501718935.2,286047015.6,N
1501718955.9,286047014.1,N
1501718975.7,286047012.6,N
1501718995.5,286047014.3,N
1501719015.4,286047012.5,N
1501719035.2,286047013.6,N
1501719055.0,286047014.0,N
1501719055.9,286047014.0,N
1501719075.8,286047011.0,N
1501719095.6,286047012.7,N
1501719115.4,286047014.3,N
1501719135.3,286047015.2,N
1501719155.1,286047015.2,N
1501719156.0,286047015.2,N
1501719175.8,286047012.5,N
1501719195.7,286047014.7,N
1501719215.5,286047012.8,N
1501719235.3,286047012.5,N
1501719255.2,286047014.4,N
1501719275.9,286047014.8,N
1501719295.7,286047014.4,N
1501719315.5,286047016.7,N
1501719335.4,286047014.9,N
1501719355.2,286047015.0,N
1501719375.0,286047016.5,N
1501719375.9,286047016.5,N
1501719395.8,286047016.9,N
1501719415.6,286047016.5,N
1501719435.4,286047016.5,N
1501719455.3,286047014.2,N
1501719475.1,286047014.8,N
1501719476.0,286047014.8,N
1501719495.8,286047014.7,N
1501719515.7,286047016.4,N
1501719535.5,286047018.4,N
1501719555.3,286047015.7,N
1501719575.1,286047018.4,N
1501719595.9,286047018.2,N
1501719615.7,286047017.9,N
1501719635.5,286047019.8,N
1501719655.4,286047019.7,N
1501719675.2,286047019.8,N
1501719695.0,286047017.8,N
1501719695.9,286047017.8,N
1501719715.8,286047017.6,N
1501719735.6,286047018.2,N
1501719755.4,286047016.3,N
1501719775.3,286047017.8,N
1501719795.1,286047017.9,N
1501719796.0,286047017.9,N
1501719815.8,286047017.6,N
1501719835.6,286047018.6,N
1501719855.5,286047018.3,N
1501719875.3,286047018.1,N
1501719895.1,286047020.1,N
1501719915.9,286047021.6,N
1501719935.7,286047019.2,N
1501719955.5,286047019.7,N
1501719975.4,286047021.7,N
1501719995.2,286047021.5,N
1501720015.0,286047021.0,N
1501720015.9,286047021.0,N
1501720035.8,286047020.8,N
1501720055.6,286047021.2,N
1501720075.4,286047021.6,N
1501720095.3,286047021.2,N
1501720115.1,286047020.6,N
1501720116.0,286047020.6,N
1501720135.8,286047019.0,N
1501720155.6,286047021.9,N
1501720175.5,286047019.0,N
1501720195.3,286047021.0,N
1501720215.1,286047020.6,N
1501720235.9,286047020.5,N
1501720255.7,286047020.8,N
1501720275.5,286047023.0,N
1501720295.4,286047025.2,N
1501720315.2,286047022.6,N
1501720335.0,286047025.0,N
1501720335.9,286047025.0,N
1501720355.8,286047022.5,N
1501720375.6,286047022.2,N
1501720395.4,286047022.1,N
1501720415.2,286047023.5,N
1501720435.1,286047021.0,N
1501720436.0,286047021.0,N
1501720455.8,286047023.5,N
1501720475.6,286047020.9,N
1501720495.5,286047021.7,N
1501720515.3,286047020.7,N
1501720535.1,286047020.6,N
1501720555.9,286047022.7,N
1501720575.7,286047022.9,N
1501720595.5,286047025.2,N
1501720615.4,286047021.2,N
1501720635.2,286047020.8,N
1501720655.0,286047021.7,N
1501720655.9,286047021.7,N
1501720675.8,286047020.9,N
1501720695.6,286047022.2,N
1501720715.4,286047022.3,N
1501720735.3,286047022.8,N
1501720755.1,286047023.1,N
1501720756.0,286047023.1,N
1501720775.8,286047024.8,N
1501720795.7,286047024.8,N
1501720815.5,286047024.7,N
1501720835.3,286047024.5,N
1501720855.1,286047024.7,N
1501720875.9,286047023.9,N
1501720895.7,286047024.5,N
1501720915.5,286047024.1,N
1501720935.4,286047024.4,N
1501720955.2,286047024.3,N
1501720975.0,286047025.1,N
1501720975.9,286047025.1,N
1501720995.8,286047022.3,N
1501721015.6,286047024.3,N
1501721035.4,286047023.8,N
1501721055.2,286047024.7,N
1501721075.1,286047024.7,N
1501721076.0,286047024.7,N
1501721095.8,286047024.6,N
1501721115.6,286047024.5,N
1501721135.5,286047024.1,N
1501721155.3,286047026.5,N
1501721175.1,286047026.2,N
1501721195.9,286047026.7,N
1501721215.7,286047026.1,N
1501721235.5,286047026.4,N
1501721255.4,286047026.0,N
1501721275.2,286047024.1,N
1501721295.0,286047026.5,N
1501721295.9,286047026.5,N
1501721315.8,286047026.7,N
1501721335.6,286047026.7,N
1501721355.4,286047026.6,N
1501721375.2,286047026.0,N
1501721395.1,286047027.1,N
1501721396.0,286047027.1,N
1501721415.8,286047027.9,N
1501721435.6,286047027.9,N
1501721455.5,286047029.4,N
1501721475.3,286047028.8,N
1501721495.1,286047029.9,N
1501721515.9,286047029.7,N
1501721535.7,286047030.4,N
1501721555.5,286047028.6,N
1501721575.4,286047029.5,N
1501721595.2,286047027.3,N
1501721615.0,286047029.2,N
1501721615.9,286047029.2,N
1501721635.8,286047031.2,N
1501721655.6,286047031.5,N
1501721675.4,286047030.3,N
1501721695.2,286047030.9,N
1501721715.1,286047030.9,N
1501721716.0,286047030.9,N
1501721735.8,286047031.3,N
1501721755.6,286047031.3,N
1501721775.5,286047031.2,N
1501721795.3,286047031.6,N
1501721815.1,286047029.2,N
1501721835.9,286047029.0,N
1501721855.7,286047030.1,N
1501721875.5,286047031.4,N
1501721895.4,286047031.4,N
1501721915.2,286047031.6,N
1501721935.0,286047030.2,N
1501721935.9,286047030.2,N
1501721955.8,286047033.0,N
1501721975.6,286047029.0,N
1501721995.4,286047029.1,N
